Private Wetterstation Ehingen
Wetterdaten: aktuell Samstag, 24.06.2017 10:35
Datum Zeit Temperatur Luftfeuchte Luftdruck Regen Wind Richtung Richtung Sonnenschein Taupunkt Windchill Windben
24.06.2017 10:35 22,1 C 58 % 1015,8 hPa 0,0 l/m 9,7 km/h (2 Bft) S-SW 213 0 min 13,4 C 21,0 C 12,3 km/h (2 Bft)
24.06.2017 10:30 22,2 C 58 % 1015,8 hPa 0,0 l/m 8,8 km/h (2 Bft) S-SO 155 0 min 13,5 C 21,4 C 15,8 km/h (3 Bft)
24.06.2017 10:25 22,3 C 57 % 1015,8 hPa 0,0 l/m 11,4 km/h (2 Bft) SW 235 0 min 13,4 C 20,8 C 14,9 km/h (3 Bft)
24.06.2017 10:20 22,3 C 58 % 1015,8 hPa 0,0 l/m 7,9 km/h (2 Bft) W-SW 254 0 min 13,6 C 21,8 C 10,5 km/h (2 Bft)
24.06.2017 01:40 19,2 C 66 % 1017,5 hPa 0,0 l/m 0,0 km/h (0 Bft) SW 222 0 min 12,7 C 19,2 C 0,0 km/h (0 Bft)
24.06.2017 01:35 19,3 C 66 % 1017,4 hPa 0,0 l/m 0,0 km/h (0 Bft) SW 222 0 min 12,8 C 19,3 C 0,0 km/h (0 Bft)
24.06.2017 01:30 19,4 C 66 % 1017,4 hPa 0,0 l/m 0,0 km/h (0 Bft) SW 222 0 min 12,9 C 19,4 C 0,0 km/h (0 Bft)
24.06.2017 01:25 19,4 C 66 % 1017,4 hPa 0,0 l/m 0,0 km/h (0 Bft) SW 222 0 min 12,9 C 19,4 C 0,0 km/h (0 Bft)
24.06.2017 01:20 19,5 C 65 % 1017,4 hPa 0,0 l/m 0,0 km/h (0 Bft) SW 222 0 min 12,7 C 19,5 C 0,0 km/h (0 Bft)
24.06.2017 01:15 19,5 C 65 % 1017,4 hPa 0,0 l/m 0,0 km/h (0 Bft) SW 222 0 min 12,7 C 19,5 C 0,0 km/h (0 Bft)
24.06.2017 01:10 19,5 C 65 % 1017,4 hPa 0,0 l/m 0,0 km/h (0 Bft) SW 222 0 min 12,7 C 19,5 C 0,0 km/h (0 Bft)
24.06.2017 01:05 19,6 C 64 % 1017,4 hPa 0,0 l/m 0,0 km/h (0 Bft) SW 222 0 min 12,6 C 19,6 C 0,0 km/h (0 Bft)
24.06.2017 01:00 19,6 C 64 % 1017,4 hPa 0,0 l/m 0,0 km/h (0 Bft) SW 222 0 min 12,6 C 19,6 C 0,0 km/h (0 Bft)
24.06.2017 00:55 19,6 C 64 % 1017,4 hPa 0,0 l/m 0,0 km/h (0 Bft) SW 222 0 min 12,6 C 19,6 C 0,0 km/h (0 Bft)
24.06.2017 00:50 19,6 C 64 % 1017,4 hPa 0,0 l/m 0,0 km/h (0 Bft) SW 219 0 min 12,6 C 19,6 C 0,0 km/h (0 Bft)
24.06.2017 00:45 19,7 C 64 % 1017,4 hPa 0,0 l/m 0,0 km/h (0 Bft) SW 219 0 min 12,7 C 19,7 C 0,0 km/h (0 Bft)
24.06.2017 00:40 19,7 C 64 % 1017,4 hPa 0,0 l/m 0,0 km/h (0 Bft) W 271 0 min 12,7 C 19,7 C 0,0 km/h (0 Bft)
24.06.2017 00:35 19,8 C 64 % 1017,3 hPa 0,0 l/m 0,0 km/h (0 Bft) W 271 0 min 12,8 C 19,8 C 0,0 km/h (0 Bft)
24.06.2017 00:30 19,8 C 63 % 1017,3 hPa 0,0 l/m 0,0 km/h (0 Bft) W 271 0 min 12,5 C 19,8 C 0,0 km/h (0 Bft)
24.06.2017 00:25 19,9 C 64 % 1017,3 hPa 0,0 l/m 0,0 km/h (0 Bft) W 271 0 min 12,9 C 19,9 C 0,0 km/h (0 Bft)
24.06.2017 00:20 19,9 C 64 % 1017,3 hPa 0,0 l/m 0,0 km/h (0 Bft) W 271 0 min 12,9 C 19,9 C 0,0 km/h (0 Bft)
24.06.2017 00:15 20,0 C 63 % 1017,3 hPa 0,0 l/m 0,0 km/h (0 Bft) NW 307 0 min 12,7 C 20,0 C 0,0 km/h (0 Bft)
24.06.2017 00:10 20,1 C 62 % 1017,3 hPa 0,0 l/m 0,0 km/h (0 Bft) NW 307 0 min 12,6 C 20,1 C 0,0 km/h (0 Bft)
24.06.2017 00:05 20,2 C 61 % 1017,2 hPa 0,0 l/m 0,0 km/h (0 Bft) NW 307 0 min 12,4 C 20,2 C 0,0 km/h (0 Bft)
24.06.2017 00:00 20,3 C 61 % 1017,2 hPa 0,0 l/m 0,0 km/h (0 Bft) NW 307 0 min 12,5 C 20,3 C 0,0 km/h (0 Bft)
_ Min-Zeit 01:40 10:25 10:25 - 01:40 - - - 00:05 01:40 01:40
Minimum _ 19,2 C 57 % 1015,8 hPa - 0,0 km/h (0 Bft) - - - 12,4 C 19,2 C 0,0 km/h (0 Bft)
_ Max-Zeit 10:25 01:40 01:40 10:35 10:25 - - 10:35 10:20 10:20 10:30
Maximum _ 22,3 C 66 % 1017,5 hPa 0,0 l/m 11,4 km/h
SW (2 Bft)
- - 0 min 13,6 C 21,8 C 15,8 km/h
S-SO (3 Bft)
Durchschnitt _ 21,2 C 61 % 1016,5 hPa #0,0 l/m 4,6 km/h (1 Bft) S-SO - #0 min. 13,2 C 20,8 C 6,1 km/h (2 Bft)